Regional Weather Roundup
Issued by NWS Jackson, KY

Home | Current Version | Previous Version | Graphics & Text | Print | Product List | Glossary Off
Versions: 1 2 3 4 5 6 7 8 9 10 11 12 13 14 15 16 17 18 19 20 21 22 23 24 25 26 27 28 29 30 31 32 33 34 35 36 37 38 39 40 41 42 43 44 45 46 47 48 49 50

000
ASUS43 KJKL 241619
RWRJKL

EAST KENTUCKY HOURLY WEATHER ROUNDUP
NATIONAL WEATHER SERVICE JACKSON KY
1200 PM EDT FRI OCT 24 2014

NOTE: "FAIR" INDICATES FEW OR NO CLOUDS BELOW 12,000 FEET WITH
NO SIGNIFICANT WEATHER AND/OR OBSTRUCTIONS TO VISIBILITY.

* THESE REPORTS ARE NOT UNDER NWS QUALITY CONTROL AND MAY NOT
  REPORT WEATHER SUCH AS PRECIPITATION AND FOG.

KYZ079-080-083-085-087-088-110-112-115-119-120-241700
...EASTERN KENTUCKY...

CITY           SKY/WX    TMP DP  RH WIND       PRES   REMARKS
JACKSON        PTSUNNY   55  45  68 CALM      30.13F
LONDON         MOSUNNY   56  44  64 S3        30.13S
SOMERSET*      PTSUNNY   55  43  62 CALM      30.15R
MONTICELLO*    SUNNY     61  46  57 CALM      30.14F
WILLIAMSBURG*  SUNNY     55  46  71 CALM      30.13
MIDDLESBORO*   CLOUDY    54  46  74 CALM      30.12F
HARLAN APT*    CLOUDY    50  41  71 CALM      30.13F
BLACK MTN*       N/A     52  36  54 NE1         N/A
PIKEVILLE APT* MOSUNNY   45  45 100 CALM      30.12F
BIG SANDY*     PTSUNNY   51  46  82 CALM      30.13F
MOREHEAD APT*  SUNNY     59  43  55 CALM      30.15S
ASHLAND*       SUNNY     55  45  67 CALM      30.11F
$$

KYZ035-036-041-042-044-050-067-078-099-241700
...CENTRAL KENTUCKY...

CITY           SKY/WX    TMP DP  RH WIND       PRES   REMARKS
MT STERLING*   MOSUNNY   55  43  62 CALM      30.15F
FLEMING/MASON* SUNNY     57  45  62 CALM      30.14F
DANVILLE*      MOSUNNY   54  45  71 NE3       30.15S
RICHMOND*      MOSUNNY   55  45  67 CALM      30.13S
LEXINGTON      PTSUNNY   58  45  62 CALM      30.14S
FRANKFORT      MOSUNNY   54  46  74 CALM      30.13F
$$

KYZ091>093-OHZ055-061-077-WVZ005-015-034-035-042-241700
...SOUTHERN OHIO/WEST VIRGINIA...

CITY           SKY/WX    TMP DP  RH WIND       PRES   REMARKS
COVINGTON      SUNNY     59  42  53 S3        30.12F
COLUMBUS       SUNNY     56  41  57 W3        30.11F
DAYTON         MOSUNNY   60  42  51 SW7       30.12S
WILMINGTON     SUNNY     58  40  51 W6        30.11F
HUNTINGTON     SUNNY     57  47  69 NE3       30.12F
CHARLESTON     PTSUNNY   50  44  80 SW3       30.13S
PINEVILLE*     CLOUDY    46  46 100 MISG      30.19S
BECKLEY        PTSUNNY   49  42  77 CALM      30.12F
BLUEFIELD      CLOUDY    53  42  66 NW7       30.13F
$$

VAZ002-007-008-TNZ017-027-036-066-071-241700
...SOUTHWEST VIRGINIA/EAST TENNESSEE...

CITY           SKY/WX    TMP DP  RH WIND       PRES   REMARKS
WISE*          CLOUDY    50  45  81 NE3       30.14S
JONESVILLE*    CLOUDY    55  43  62 CALM      30.14F
ABINGDON*      PTSUNNY   54  44  69 SE3       30.11F
BRISTOL        CLOUDY    51  44  77 CALM      30.12F
OAK RIDGE      MOSUNNY   59  45  59 SE5       30.13F
CROSSVILLE     SUNNY     59  38  45 CALM      30.13S
NASHVILLE      MOSUNNY   63  44  50 N6        30.15S
$$

...KEY TO REMARKS...
VSB - VISIBILITY IN MILES
WCI - WIND CHILL INDEX
HX  - HEAT INDEX

$$



USA.gov is the U.S. government's official web portal to all federal, state and local government web resources and services.